Regional Weather Roundup
Issued by NWS

Home | Current Version | Previous Version | Text Only | Print | Product List | Glossary Off
Versions: 1 2 3 4 5 6 7 8 9 10 11 12 13 14 15 16 17 18 19 20 21 22 23 24 25 26 27 28 29 30 31 32 33 34 35 36 37 38 39 40 41 42 43 44 45 46 47 48 49 50

409
ASUS43 KFSD 172302
RWRSD

WEATHER ROUNDUP FOR SOUTH DAKOTA
NATIONAL WEATHER SERVICE SIOUX FALLS SD
500 PM CST TUE JAN 17 2017

NOTE: "FAIR" INDICATES FEW OR NO CLOUDS BELOW 12,000 FEET WITH NO
SIGNIFICANT WEATHER AND/OR OBSTRUCTIONS TO VISIBILITY.


SDZ001>005-009-010-012>017-180000-
NORTHWEST AND NORTH CENTRAL SOUTH DAKOTA

CITY           SKY/WX    TMP DP  RH WIND       PRES   REMARKS
BUFFALO          N/A     34  22  61 W14       29.77R WCI  25
FAITH            N/A     21  15  78 S3        29.85R
MOBRIDGE       CLOUDY    19  11  70 S9        29.85R WCI   8
$$

SDZ012>016-024>037-041>051-057-063-072>074-180000-
SOUTHWEST AND SOUTH CENTRAL SOUTH DAKOTA

CITY           SKY/WX    TMP DP  RH WIND       PRES   REMARKS
RAPID CTY ARPT CLOUDY    34  23  64 CALM      29.88R
PIERRE         CLOUDY    26  18  71 S6        29.90F WCI  19
CUSTER         CLOUDY    44  12  27 W9        29.89R
ELLSWORTH AFB  CLOUDY    41  18  38 SW8       29.87R
PHILIP         CLOUDY    31  22  69 W6        29.89S WCI  25
PINE RIDGE     CLOUDY    36  20  52 CALM      29.92S
SPEARFISH      FAIR      50  19  29 W9        29.88R
WINNER         FAIR      49  20  31 S8        29.91F
$$

SDZ004>011-016>023-039-040-180000-
NORTHEAST SOUTH DAKOTA

CITY           SKY/WX    TMP DP  RH WIND       PRES   REMARKS
ABERDEEN       CLOUDY    20  13  74 S12       29.92F WCI   8
WATERTOWN      CLOUDY    20  16  84 S8        29.93F WCI  10
BROOKINGS      CLOUDY    25  20  81 S5        29.97S WCI  19
SISSETON         N/A     26  21  81 SW7       29.90F WCI  18
$$

SDZ017-020-022-023-036>040-048>070-180000-
SOUTHEAST SOUTH DAKOTA

CITY           SKY/WX    TMP DP  RH WIND       PRES   REMARKS
SIOUX FALLS    PTCLDY    32  24  72 SW3       30.00F
HURON          CLOUDY    30  23  75 S6        29.95S WCI  24
CHAMBERLAIN    CLOUDY    40  30  66 SE5       29.92F
MITCHELL       CLEAR     36  27  69 SE8       29.97F
YANKTON        CLEAR     34  30  86 SE6       30.01F WCI  29
$$

ABBREVIATIONS USED IN REMARKS
   TC - TEMPERATURE IN CELSIUS
  WCI - WIND CHILL INDEX
   HX - HEAT INDEX
  VSB - VISIBILITY





USA.gov is the U.S. government's official web portal to all federal, state and local government web resources and services.